ランキン彗星

P/2024 L4 ( Rankin )

English version
Home page
Updated on September 3, 2024

---------------------------------------------------------------------

・ プロフィール

発見日 2024年6月15日
発見光度 20.9等
発見者 David Rankin (Mt. Lemmon Survey)

・ 軌道要素

Epoch 2024 Oct. 17.0 TT = JDT 2460600.5
T 2024 Apr. 14.29031 TT                                 Rudenko
q   0.6721514            (2000.0)            P               Q
n   0.29626812     Peri.   53.70799     -0.96445151     +0.23904534
a   2.2285006      Node   139.77664     -0.26121471     -0.92690415
e   0.6983840      Incl.   10.04649     +0.04000197     -0.28931994
P   3.33
>From 73 observations 2024 June 15-July 27, mean residual 0".3.

・ 光度変化

        m1 = 21.0 + 5 logΔ + 10.0 log r

---------------------------------------------------------------------

軌道要素はM.P.E.C. 2024-P23に掲載されたものです。
光度グラフはComet for Windowsで作成したものです。

---------------------------------------------------------------------

Copyright(C) Seiichi Yoshida (comet@aerith.net). All rights reserved.